Location: Home
(42.5358°N, 72.7383°W)
Time: 12:22:20
(UTC-05:00)

Tiros 1 - Pass Details

Date: 29 November 2021
Orbit: 629 x 664 km, 48.4° (Epoch: 26 January)

Event Time Altitude Azimuth Distance (km) Brightness Sun altitude
Rises 19:52:33 0° 231° (SW) 2,917 11.0 -38.7°
Enters shadow 19:54:03 - 229° (SW) 2,332 10.4 -39.0°
Reaches altitude 10° 19:54:52 10° 228° (SW) 2,017 - -39.1°
Maximum altitude 19:59:28 63° 148° (SSE) 714 - -39.9°
Drops below altitude 10° 20:04:07 10° 67° (ENE) 2,047 - -40.8°
Sets 20:06:30 0° 64° (ENE) 2,966 - -41.2°
